sat.trackr.live / text

‹ back to catalog

STARLINK-11356 [DTC]

NORAD 61574 · 2024-187A

PAYLOAD ACTIVE UNKNOWN

§ Identity

Operator
Country
US
Launch date
2024-10-18
Launch site
AFETR
Launch vehicle
Mass (kg)
RCS (m²)

Purposes: comms

External: N2YO · Heavens-Above · Gunter

§ Orbital elements

Epoch: 2026-05-24T20:40:26.114304Z

Period
91.74 min
Inclination
53.1603°
Eccentricity
0.0000663
Mean motion
15.69716746 rev/d
Perigee alt
359.3 km
Apogee alt
360.2 km
Semi-major
6,737.8 km
B*
2.5865e-5
RAAN
280.7752°
Arg perigee
35.1019°
Mean anomaly
325.0042°
Rev number
9,274

§ Raw data

STARLINK-11356 [DTC]1 61574U 24187A   26144.86141336  .00002547  00000+0  25865-4 0  99912 61574  53.1603 280.7752 0000663  35.1019 325.0042 15.69716746 92748

JSON: /api/v1/satellites/61574 · /tle

For live sub-satellite position, see the globe view (requires WebGL).

§ Visibility from observer

Set your observer location to see the next 7 days of passes ≥ 10°. The values pass through the URL so the page stays shareable.

No JS? Fill the form by hand. The geolocation button needs JavaScript.